Temp
4 4 4 5 8 8 9 8 8 8 8 7 7 7 7 6 6 7 7 7 7 7 8 8 8 9 9 9 10 10 8 9 9 10 11 14 13 15 15 16 17 19 19 18 18
4 4 4 4 5 6 8 8 8 8 8 7 7 7 6 6 6 6 7 7 7 7 8 7 8 9 9 9 9 9 7 8 10 11 11 12 12 12 13 14 16 16 16 16 17
3 3 3 3 4 6 7 8 8 8 8 8 7 7 6 6 6 6 6 7 7 7 7 7 8 8 8 9 9 9 8 9 10 11 11 11 12 12 12 11 14 14 13 14 15
4 3 3 3 3 5 6 7 8 8 8 8 6 6 6 6 6 7 7 6 7 6 7 7 7 8 8 7 9 8 9 10 11 11 11 11 11 11 11 12 12 13 14 13 14
4 3 3 3 3 5 6 7 7 8 7 7 6 6 6 6 7 7 6 6 6 6 6 7 7 7 7 7 7 8 8 9 9 9 10 10 10 10 11 12 12 12 13 14 14
4 3 3 3 4 5 6 7 7 7 7 6 5 6 6 6 6 6 6 6 6 6 6 6 7 7 7 7 6 7 6 7 8 8 9 9 9 10 11 11 12 12 12 14 14
4 3 3 4 5 6 7 6 6 6 6 5 5 5 5 6 6 6 6 6 6 6 6 6 6 6 6 5 6 6 5 6 7 7 7 9 8 8 10 11 11 12 12 13 14
4 4 4 4 5 5 6 6 6 6 5 5 5 5 6 6 6 6 6 6 6 5 6 5 6 5 5 5 5 5 5 3 7 7 8 8 6 9 10 11 11 11 12 12 14
3 4 4 5 5 4 5 6 5 5 4 4 5 5 6 6 6 6 6 6 6 5 5 5 5 5 5 3 3 3 2 3 5 8 7 7 6 9 9 10 10 10 11 13 13
3 3 4 5 5 4 5 4 4 4 4 4 4 5 6 6 6 6 6 6 6 6 5 5 5 2 3 3 2 0 3 4 4 7 7 7 7 8 9 9 9 10 10 12 14
3 4 4 6 7 5 5 4 4 3 3 5 6 7 6 6 6 6 6 6 5 6 4 5 2 2 2 3 4 4 3 4 5 7 7 7 8 9 9 9 7 8 10 12 13
4 4 4 4 4 4 5 4 3 4 4 5 6 6 6 6 6 6 6 5 5 3 4 3 3 4 5 5 5 3 4 5 6 7 7 7 7 8 9 7 7 7 11 12 12
3 3 3 4 4 4 4 4 4 5 5 5 6 6 6 6 7 6 6 5 4 4 3 3 4 5 4 4 4 4 4 5 4 6 7 7 6 7 9 8 8 8 13 12 12
3 4 4 3 3 4 4 4 5 5 3 5 6 6 6 6 6 6 5 4 4 4 4 3 5 5 5 5 5 4 6 6 5 5 3 6 5 7 8 8 10 10 11 12 12
3 4 3 4 4 4 4 4 5 5 3 7 7 7 6 6 6 5 5 3 4 4 3 6 5 5 5 6 6 6 8 6 5 5 6 7 6 7 7 9 7 8 11 12 11
3 3 3 4 4 4 4 5 5 4 1 4 7 6 6 6 7 4 4 3 3 4 4 4 6 5 6 8 8 8 6 6 5 5 6 8 7 7 6 6 7 9 9 11 11
4 4 5 4 3 3 4 5 2 1 5 5 6 8 8 7 7 6 5 5 6 6 4 6 6 6 7 7 7 6 5 7 6 6 8 6 7 6 5 7 7 7 7 10 9
4 4 4 4 4 4 4 2 1 6 6 9 9 9 7 10 9 9 7 7 7 7 5 6 5 6 8 7 5 5 6 7 9 8 9 8 7 6 5 7 7 7 7 8 8
5 4 4 3 4 4 4 1 2 6 8 9 9 8 8 10 9 9 8 8 9 8 6 7 6 8 8 9 8 8 7 7 7 8 7 7 6 6 5 6 7 7 6 6 7
6 5 2 3 4 4 2 4 5 7 7 9 8 8 9 10 9 10 9 8 8 9 8 8 7 9 10 10 10 8 10 8 7 9 9 7 7 6 4 5 6 6 6 6 7
6 3 3 4 4 4 1 4 7 8 8 8 8 9 9 10 9 9 8 8 8 8 8 8 8 8 10 9 8 8 9 10 9 9 8 8 7 3 4 6 8 5 6 7 9
2 2 4 3 3 3 3 6 7 8 9 8 9 9 9 9 8 9 8 8 9 8 8 9 8 5 9 10 10 9 9 9 6 9 7 7 6 9 6 6 9 9 9 9 9
2 2 3 3 1 2 6 7 7 7 8 9 9 10 10 10 9 9 9 10 9 8 8 8 6 4 6 7 7 8 9 9 9 6 6 6 7 9 9 8 8 8 8 8 8
4 2 3 4 4 5 6 8 7 8 8 9 10 10 10 10 10 9 10 10 10 9 9 8 7 6 4 7 7 7 8 8 7 4 6 6 6 7 7 7 7 8 8 8 7
5 2 3 -0 4 5 6 7 8 8 9 9 10 8 9 8 9 8 9 8 10 10 10 8 6 4 8 9 9 8 8 7 6 7 5 6 6 7 6 6 7 8 7 7 7
5 4 5 5 7 6 5 8 9 8 8 8 9 8 7 7 7 7 8 7 8 8 9 7 6 7 8 10 9 8 7 8 8 8 7 6 7 7 7 8 8 7 7 6 6
5 5 5 5 4 5 5 8 8 8 8 8 8 8 7 7 8 8 8 9 9 8 7 7 6 4 6 8 8 7 8 8 8 7 7 7 7 6 7 7 7 7 6 6 5
Height
1485 1483 1482 1481 1483 1485 1486 1486 1489 1491 1490 1489 1490 1491 1490 1492 1492 1492 1492 1495 1496 1495 1498 1499 1500 1500 1501 1502 1505 1506 1509 1505 1506 1505 1501 1496 1495 1489 1490 1487 1484 1482 1483 1485 1486
1481 1479 1479 1477 1477 1480 1482 1483 1485 1487 1488 1488 1487 1488 1490 1490 1491 1492 1492 1495 1496 1497 1497 1499 1500 1499 1501 1501 1503 1504 1507 1504 1502 1501 1500 1498 1497 1494 1493 1490 1483 1482 1482 1483 1484
1477 1476 1475 1474 1472 1476 1478 1480 1481 1484 1485 1486 1486 1487 1489 1490 1491 1492 1493 1495 1497 1498 1496 1498 1500 1501 1502 1502 1502 1501 1503 1501 1500 1500 1498 1497 1495 1493 1493 1491 1491 1489 1484 1481 1482
1473 1473 1471 1470 1468 1470 1473 1474 1478 1480 1483 1484 1486 1487 1488 1489 1492 1493 1493 1494 1497 1497 1498 1498 1501 1503 1502 1502 1500 1502 1499 1499 1498 1498 1496 1495 1494 1489 1490 1490 1489 1487 1486 1483 1480
1470 1469 1468 1466 1464 1466 1468 1471 1474 1477 1480 1482 1485 1486 1488 1488 1492 1495 1496 1495 1497 1498 1499 1498 1501 1501 1502 1502 1501 1499 1498 1496 1495 1495 1494 1492 1490 1488 1481 1486 1484 1484 1480 1477 1480
1466 1465 1464 1462 1461 1463 1465 1468 1470 1474 1477 1481 1484 1486 1487 1489 1492 1495 1496 1495 1498 1498 1499 1499 1500 1500 1501 1501 1503 1500 1498 1494 1492 1491 1491 1490 1486 1486 1478 1482 1482 1479 1480 1477 1476
1462 1462 1461 1459 1458 1458 1462 1466 1469 1472 1476 1481 1484 1486 1487 1490 1492 1495 1497 1497 1498 1499 1499 1498 1499 1501 1503 1502 1502 1501 1500 1495 1490 1487 1486 1487 1481 1477 1477 1477 1477 1476 1475 1476 1474
1458 1458 1458 1457 1458 1459 1463 1465 1470 1472 1476 1481 1484 1486 1487 1490 1492 1495 1497 1498 1498 1500 1498 1497 1500 1501 1500 1502 1501 1501 1500 1500 1484 1482 1479 1486 1475 1471 1471 1474 1470 1470 1471 1471 1471
1455 1455 1455 1455 1456 1457 1460 1465 1469 1473 1478 1482 1485 1486 1488 1490 1491 1494 1496 1498 1498 1499 1498 1498 1499 1498 1500 1504 1506 1504 1511 1501 1489 1480 1480 1480 1472 1465 1467 1468 1465 1464 1466 1466 1466
1453 1453 1453 1451 1454 1456 1460 1465 1471 1476 1481 1485 1487 1489 1489 1489 1491 1494 1496 1498 1498 1497 1498 1498 1497 1499 1501 1504 1511 1516 1508 1498 1492 1476 1474 1470 1465 1460 1461 1463 1462 1460 1460 1460 1460
1452 1452 1451 1445 1450 1458 1463 1468 1478 1483 1484 1484 1485 1485 1486 1490 1491 1494 1496 1495 1496 1497 1498 1497 1501 1501 1501 1501 1500 1500 1500 1496 1484 1473 1473 1466 1457 1453 1454 1457 1457 1455 1454 1454 1454
1450 1452 1453 1453 1455 1462 1465 1470 1476 1480 1483 1484 1484 1485 1488 1490 1491 1494 1495 1496 1495 1497 1497 1501 1497 1494 1495 1496 1497 1498 1493 1483 1473 1468 1468 1461 1452 1449 1447 1450 1451 1449 1446 1448 1451
1450 1453 1456 1458 1461 1466 1470 1472 1474 1476 1480 1486 1486 1488 1489 1490 1491 1492 1494 1494 1494 1495 1497 1497 1492 1490 1492 1494 1493 1488 1485 1477 1479 1465 1459 1455 1454 1442 1444 1449 1446 1445 1443 1445 1448
1452 1454 1459 1462 1467 1469 1471 1474 1475 1476 1485 1491 1489 1489 1490 1489 1491 1490 1492 1494 1493 1494 1492 1493 1486 1486 1485 1485 1487 1484 1471 1471 1470 1471 1482 1458 1464 1441 1441 1443 1440 1440 1440 1442 1445
1455 1455 1460 1465 1468 1470 1473 1474 1476 1477 1500 1490 1488 1488 1488 1489 1490 1490 1491 1491 1492 1492 1495 1484 1484 1483 1483 1479 1477 1473 1467 1467 1471 1467 1466 1453 1464 1445 1444 1438 1440 1437 1436 1439 1442
1459 1462 1465 1467 1468 1471 1473 1475 1478 1485 1513 1494 1486 1487 1488 1486 1486 1489 1490 1491 1491 1491 1490 1486 1482 1483 1475 1470 1468 1463 1465 1465 1466 1466 1461 1444 1454 1447 1450 1448 1442 1439 1437 1437 1440
1463 1466 1468 1468 1471 1473 1476 1477 1486 1506 1492 1492 1487 1483 1482 1483 1483 1484 1487 1486 1485 1486 1489 1479 1476 1475 1473 1468 1464 1467 1469 1458 1460 1461 1442 1451 1452 1452 1451 1442 1441 1442 1439 1438 1438
1465 1469 1470 1471 1474 1476 1477 1480 1500 1486 1488 1481 1479 1480 1481 1475 1476 1478 1481 1480 1479 1480 1484 1478 1483 1471 1466 1466 1467 1465 1463 1453 1443 1445 1444 1449 1451 1456 1451 1443 1441 1442 1438 1432 1428
1471 1471 1473 1474 1476 1478 1478 1492 1500 1488 1482 1481 1480 1480 1478 1474 1476 1475 1479 1479 1477 1477 1483 1478 1477 1464 1463 1459 1461 1456 1456 1457 1451 1448 1453 1457 1459 1456 1457 1449 1445 1443 1441 1441 1442
1475 1474 1476 1477 1478 1478 1480 1486 1489 1485 1484 1481 1482 1476 1475 1473 1476 1472 1477 1479 1477 1475 1474 1475 1477 1460 1457 1454 1451 1455 1449 1451 1455 1451 1451 1459 1460 1465 1464 1458 1452 1448 1444 1444 1451
1478 1480 1482 1481 1481 1480 1491 1489 1487 1485 1483 1482 1481 1478 1475 1473 1474 1476 1481 1479 1477 1474 1475 1473 1473 1467 1458 1458 1458 1457 1451 1443 1447 1451 1453 1457 1466 1479 1470 1464 1456 1456 1457 1459 1461
1481 1486 1487 1485 1484 1484 1489 1486 1485 1484 1482 1482 1480 1478 1477 1477 1480 1478 1480 1479 1476 1473 1475 1472 1473 1483 1465 1457 1454 1454 1453 1449 1464 1457 1461 1468 1478 1468 1472 1468 1462 1462 1463 1463 1464
1487 1490 1489 1487 1494 1492 1486 1487 1487 1486 1484 1482 1482 1478 1476 1477 1481 1478 1478 1476 1476 1474 1474 1474 1480 1492 1478 1468 1460 1459 1450 1449 1449 1459 1473 1478 1480 1471 1468 1470 1470 1468 1468 1469 1468
1490 1492 1492 1490 1490 1490 1488 1487 1488 1487 1485 1484 1482 1478 1477 1476 1478 1480 1479 1476 1474 1473 1472 1473 1479 1483 1497 1483 1476 1470 1458 1450 1454 1477 1473 1480 1482 1478 1474 1471 1470 1470 1469 1469 1467
1493 1495 1494 1498 1491 1489 1489 1488 1487 1488 1486 1484 1483 1483 1480 1483 1482 1482 1479 1477 1474 1473 1472 1474 1484 1487 1476 1472 1471 1471 1467 1464 1468 1464 1479 1479 1479 1478 1476 1474 1473 1472 1470 1469 1467
1497 1496 1495 1493 1491 1490 1490 1488 1487 1488 1487 1486 1486 1485 1482 1483 1485 1486 1483 1481 1481 1476 1474 1474 1486 1480 1478 1472 1472 1475 1473 1468 1467 1469 1475 1477 1478 1476 1476 1475 1475 1474 1473 1471 1471
1498 1497 1497 1494 1494 1494 1492 1489 1488 1488 1488 1487 1487 1486 1485 1484 1482 1481 1480 1479 1478 1478 1478 1477 1483 1491 1487 1478 1476 1482 1474 1472 1471 1471 1472 1475 1474 1474 1477 1476 1476 1477 1477 1478 1478
Wind_Speed
14 12 12 19 25 20 15 12 16 12 9 8 7 5 2 3 4 1 3 1 3 6 3 5 3 3 1 3 7 9 2 10 4 5 7 21 13 30 28 21 27 11 10 10 13
13 14 14 13 15 11 14 21 17 10 10 9 8 3 1 2 4 2 2 7 7 5 9 4 3 3 3 3 4 4 3 4 4 8 10 18 16 23 16 20 20 19 10 11 12
13 14 13 12 11 12 7 20 16 13 13 10 8 3 3 2 4 3 8 7 4 8 5 2 2 4 2 5 4 4 6 7 15 21 23 19 20 23 7 5 17 18 8 3 5
13 12 13 14 12 15 11 12 19 15 11 11 6 5 6 4 3 3 4 6 10 8 8 5 3 0 1 3 6 5 10 14 16 19 20 14 19 20 17 16 24 22 14 1 0
12 13 13 15 13 13 15 12 22 14 10 10 5 9 9 5 2 5 7 9 8 7 4 3 2 3 1 4 9 3 5 14 17 18 19 23 14 15 27 23 28 27 23 19 11
9 12 14 14 8 10 14 21 22 13 7 7 12 10 10 6 6 4 6 10 2 7 4 4 3 4 3 3 3 9 14 16 17 20 19 16 17 16 29 24 25 28 26 19 14
11 11 13 12 5 11 16 26 16 8 8 9 13 11 8 8 7 6 8 6 5 6 5 6 1 1 7 6 11 11 6 12 14 17 13 18 17 16 22 28 29 30 27 20 16
11 9 12 10 4 13 15 18 13 9 10 12 14 10 5 7 6 9 9 7 6 5 5 3 1 0 2 8 9 5 4 5 3 7 12 9 19 19 23 26 31 30 31 28 22
8 9 12 7 7 1 22 18 13 9 13 16 12 7 4 4 10 7 9 7 7 3 2 1 2 2 3 2 3 2 4 7 12 11 11 10 17 21 29 27 28 26 30 32 26
7 10 12 9 8 7 17 17 19 22 19 12 4 3 4 3 9 7 8 8 4 4 4 1 2 2 0 3 3 5 4 8 12 6 15 16 19 19 22 21 26 33 30 32 22
3 7 10 10 15 16 22 28 15 8 5 3 1 7 13 7 6 8 8 7 6 3 2 1 1 7 9 8 7 9 13 17 18 20 17 15 14 18 21 12 19 30 30 27 20
3 4 9 16 21 21 16 12 6 4 5 4 6 5 6 4 5 8 8 5 4 3 2 3 9 10 9 10 13 12 16 18 16 15 11 12 16 9 10 6 19 22 27 18 10
2 5 6 17 16 16 13 9 9 11 5 2 3 1 4 4 1 10 8 2 1 2 5 7 3 9 5 11 12 12 13 14 12 12 8 2 7 11 5 18 31 31 23 23 20
8 8 11 9 13 11 7 10 10 3 4 1 3 2 3 5 5 7 6 2 2 1 2 6 6 9 8 11 12 11 9 7 8 5 3 5 5 3 4 11 14 23 19 14 17
15 20 19 11 8 7 3 9 6 2 5 4 3 4 4 2 9 2 4 5 3 3 2 2 3 6 6 7 8 9 7 3 14 6 4 6 4 5 8 5 4 6 17 16 16
16 19 16 11 6 5 7 11 4 4 1 3 3 3 3 5 7 7 2 3 2 2 6 7 5 3 5 8 11 9 4 8 1 2 4 4 9 2 3 5 6 7 1 17 15
14 15 13 11 10 16 12 2 4 6 3 2 4 4 5 5 6 8 5 4 3 1 3 5 5 4 6 6 2 3 2 3 3 4 3 8 5 0 9 7 7 6 11 8 17
18 17 12 15 14 13 1 3 9 2 4 3 3 3 3 4 4 8 3 2 5 4 2 5 6 3 4 5 4 2 3 2 4 3 2 3 4 6 13 11 6 6 8 16 20
14 13 13 13 16 6 2 6 5 2 3 2 2 2 3 2 2 4 4 4 1 2 1 4 4 3 7 5 3 2 2 2 2 1 3 4 2 2 16 14 13 14 14 23 27
10 17 14 13 10 5 4 4 3 3 5 3 2 5 2 3 1 3 1 4 4 2 2 3 4 5 3 5 7 5 2 3 2 3 4 3 3 5 10 9 10 11 25 34 28
7 7 5 8 5 4 3 3 3 1 4 3 4 6 4 3 5 4 4 1 4 5 3 3 2 6 2 3 4 5 4 3 1 4 1 1 4 1 5 12 17 19 18 23 22
8 3 7 5 4 2 2 1 1 3 4 3 2 3 4 6 5 2 2 1 6 5 2 1 2 3 2 4 3 3 5 2 3 5 3 3 4 4 10 6 12 17 22 24 22
6 3 6 9 3 3 1 2 3 5 4 5 5 3 2 2 2 2 2 3 4 3 3 4 3 3 8 6 6 4 11 3 3 3 4 4 3 4 11 11 14 17 20 21 20
3 2 3 4 2 2 3 1 2 0 2 3 3 3 2 2 4 2 1 4 3 1 3 1 3 3 5 5 5 6 12 8 5 4 3 4 6 4 5 6 10 17 17 17 18
1 0 2 2 4 2 2 3 2 1 2 3 2 5 3 3 3 4 4 6 3 5 2 3 2 3 2 3 2 4 5 10 6 5 5 7 5 3 3 4 8 12 11 13 16
7 3 1 4 1 1 2 1 1 2 2 4 3 4 6 3 2 1 3 3 1 6 5 4 1 2 2 3 2 3 7 7 8 11 7 8 4 5 8 10 8 8 7 10 11
12 8 5 3 4 1 3 1 1 2 2 1 3 0 2 1 6 8 8 4 1 1 3 2 3 2 3 2 2 4 2 2 2 3 6 4 5 6 4 6 5 5 2 3 6
Wind_Direction
310 309 310 283 260 262 266 253 251 263 271 269 280 298 304 334 343 285 107 191 244 246 180 119 44 89 160 251 249 265 220 238 240 249 283 301 308 307 316 317 308 257 207 201 221
306 308 310 317 280 239 261 242 245 264 270 277 278 293 226 333 25 36 111 243 250 259 133 6 3 206 187 263 236 178 240 229 249 288 290 296 310 324 342 334 328 330 126 163 182
322 300 301 306 306 221 219 237 240 259 261 267 279 282 167 42 72 140 151 227 223 131 83 185 94 43 15 284 258 232 243 278 279 284 284 293 303 308 335 322 321 334 11 142 213
325 317 310 309 293 226 202 250 232 235 247 262 253 170 158 145 100 143 159 152 143 125 112 94 78 208 280 319 292 283 282 268 271 272 288 289 296 293 288 284 298 306 294 358 263
320 317 311 308 305 229 226 210 214 223 234 245 179 158 146 110 148 148 138 134 130 124 95 75 74 350 316 336 348 298 302 315 311 313 306 300 292 284 285 289 289 295 310 286 282
316 311 325 325 305 220 216 189 199 191 216 199 158 159 139 110 107 145 141 128 124 109 97 94 14 9 5 329 353 332 337 317 309 301 292 286 294 277 274 286 287 288 293 273 277
291 304 322 333 291 264 197 195 184 183 192 152 156 149 132 124 144 151 169 127 166 152 127 72 113 104 340 328 343 344 329 305 282 276 271 281 277 267 271 281 279 276 278 277 278
283 306 317 323 271 82 172 175 204 187 154 150 148 132 102 160 187 198 168 175 189 188 183 98 17 294 359 320 343 340 316 303 325 282 263 230 262 258 261 257 268 264 270 269 265
311 311 311 311 254 352 173 191 166 166 140 140 137 122 127 159 182 187 173 188 200 177 163 85 321 38 353 53 337 299 270 249 288 257 254 209 251 260 254 255 264 270 265 261 247
304 304 321 287 230 192 153 128 107 116 120 114 117 113 140 140 136 169 179 208 182 177 181 272 94 73 334 149 235 234 250 279 278 271 296 282 245 248 244 246 250 263 261 250 241
327 328 22 42 182 171 141 113 115 109 146 134 236 67 129 138 148 174 192 184 200 216 207 182 48 219 214 208 243 271 274 275 276 281 285 284 256 250 241 241 279 284 248 231 229
7 24 65 114 143 157 139 106 106 122 130 88 93 95 122 151 150 172 183 179 183 205 71 354 257 253 227 236 267 264 284 275 280 271 275 289 264 255 226 252 274 267 214 226 233
52 63 144 114 146 161 142 132 152 142 103 70 105 336 164 151 132 162 175 167 77 248 213 215 213 330 243 238 255 253 258 273 257 300 260 272 284 248 229 201 243 259 229 231 230
50 126 134 123 118 129 128 156 157 121 92 98 221 173 157 172 60 155 172 149 144 268 240 249 241 255 271 259 239 275 249 252 288 287 260 84 294 311 292 260 219 227 214 207 211
79 116 126 113 117 122 118 159 171 300 74 260 123 171 194 152 153 182 235 169 207 196 166 265 236 227 249 243 182 238 238 244 269 219 284 225 237 332 346 227 334 287 229 220 204
104 103 109 105 101 141 149 155 167 52 307 304 157 195 196 202 177 141 183 207 229 227 216 252 290 237 229 257 254 273 345 290 135 173 249 246 187 356 344 285 298 317 359 185 197
110 115 96 89 102 127 138 141 53 86 279 272 218 186 234 195 191 170 185 195 208 3 269 197 227 230 215 264 224 71 284 276 176 217 19 100 154 113 312 301 270 307 339 188 171
109 129 88 71 115 139 29 66 69 169 205 209 201 205 250 174 207 192 152 268 226 251 287 354 333 229 161 201 248 234 216 319 352 34 51 81 1 348 338 5 348 22 337 105 85
104 120 86 83 149 146 5 54 169 252 281 158 350 248 271 229 177 170 151 4 207 89 146 3 287 279 231 218 218 357 306 245 272 287 82 350 41 346 11 29 33 53 60 68 70
118 87 62 116 151 359 60 111 85 334 327 331 258 194 107 348 88 139 93 350 316 352 138 295 302 226 276 225 243 206 224 294 37 36 67 352 42 22 1 28 63 78 61 62 73
109 59 65 128 13 27 99 90 127 328 33 37 325 10 37 349 29 45 2 245 352 303 175 281 201 299 7 341 307 341 334 304 165 146 133 52 55 331 30 53 61 63 77 85 83
63 63 83 354 26 42 66 85 320 330 332 315 275 357 2 17 18 67 86 289 343 315 337 279 245 293 249 269 292 272 295 359 83 11 61 88 45 230 185 207 99 82 79 89 86
67 73 30 11 71 350 243 87 50 25 1 0 352 347 314 320 75 36 68 269 340 9 356 347 350 2 346 348 352 358 336 300 113 60 23 91 94 17 58 70 79 82 83 84 81
70 25 343 12 340 292 19 46 111 293 297 326 290 300 309 336 42 76 8 220 280 307 256 36 38 130 167 224 253 327 346 7 83 76 66 55 131 50 64 80 79 88 80 72 60
55 171 327 294 333 83 67 336 104 57 316 270 336 29 308 37 2 26 352 1 284 353 339 111 88 60 300 228 332 333 357 12 68 155 109 173 119 160 136 107 95 91 75 57 43
358 13 246 295 274 113 26 256 125 163 42 342 58 42 41 69 86 9 321 32 67 324 6 12 185 61 303 353 101 32 0 20 51 78 84 117 117 162 139 118 92 80 62 47 25
359 350 298 300 309 73 231 166 51 50 304 13 311 298 68 272 319 304 309 274 259 3 333 33 131 94 270 328 15 337 297 21 77 41 149 183 186 154 130 130 147 152 124 54 350